Change the Weather History Date:

Thursday, July 25, 2013

  Actual Average Record
Temperature  
Mean Temperature 53 °F -  
Max Temperature 64 °F - - ()
Min Temperature 41 °F - - ()
Degree Days  
Heating Degree Days 12    
Growing Degree Days 3 (Base 50)    
Moisture  
Dew Point 42 °F    
Average Humidity 72    
Maximum Humidity 100    
Minimum Humidity 33    
Precipitation  
Precipitation 0.00 in - - ()
Sea Level Pressure  
Sea Level Pressure 30.35 in    
Wind  
Wind Speed 7 mph ()    
Max Wind Speed 12 mph    
Max Gust Speed -    
Visibility 7.4 miles    
Events      
T = Trace of Precipitation, MM = Missing Value Source: Averaged Metar Reports

Daily Weather History Graph

Daily Weather History Graph

Search for Another Location

Airport or City:

Trip Planner

Search our weather history database for the weather conditions in past years. The results will help you decide how hot, cold, wet, or windy it might be!

Date:

Astronomy

Jul. 25, 2013 Rise Set
Actual Time 6:48 AM AEST 5:10 PM AEST
Civil Twilight 6:21 AM AEST 5:36 PM AEST
Nautical Twilight 5:51 AM AEST 6:06 PM AEST
Astronomical Twilight 5:22 AM AEST 6:36 PM AEST
Moon 8:07 PM AEST (7/25) 8:06 AM AEST (7/25)
Length of Visible Light 11h 15m
Length of Day
10h 22m
Waning Gibbous, 92% of the Moon is Illuminated
Jul 25
Waning Gibbous
Jul 30
Last Quarter
Aug 7
New
Aug 14
First Quarter
Aug 21
Full

Hourly Weather History & Observations

Time (AEST) Temp. Windchill Dew Point Humidity Pressure Visibility Wind Dir Wind Speed Gust Speed Precip Events Conditions
12:00 AM 48 °F - 42 °F 71% 30.36 in - West 8.1 mph - -  
12:00 AM 48.2 °F - 41.0 °F 76% 30.33 in 6.2 mi West 8.1 mph - N/A   Mostly Cloudy
12:30 AM 46.4 °F 42.4 °F 41.0 °F 81% 30.36 in 6.2 mi NW 8.1 mph - N/A   Scattered Clouds
1:00 AM 45 °F - 41 °F 82% 30.36 in - NW 8.1 mph - -  
1:00 AM 44.6 °F 40.2 °F 41.0 °F 87% 30.33 in 6.2 mi NW 8.1 mph - N/A   Unknown
1:30 AM 44.6 °F 41.4 °F 41.0 °F 87% 30.33 in 6.2 mi NW 5.8 mph - N/A   Unknown
2:00 AM 44.6 °F 39.7 °F 41.0 °F 87% 30.33 in 6.2 mi WNW 9.2 mph - N/A   Unknown
2:30 AM 44.6 °F 39.7 °F 41.0 °F 87% 30.33 in 6.2 mi WNW 9.2 mph - N/A   Unknown
3:00 AM 47 °F - 42 °F 76% 30.36 in - West 9.2 mph - -  
3:00 AM 46.4 °F 41.9 °F 41.0 °F 81% 30.36 in 6.2 mi West 9.2 mph - N/A   Overcast
3:30 AM 48.2 °F - 41.0 °F 76% 30.36 in 6.2 mi WNW 10.4 mph - N/A   Overcast
4:00 AM 48 °F - 41 °F 70% 30.37 in - WNW 9.2 mph - -  
4:00 AM 48.2 °F - 41.0 °F 76% 30.36 in 6.2 mi WNW 9.2 mph - N/A   Overcast
4:30 AM 48.2 °F - 41.0 °F 76% 30.36 in 6.2 mi WNW 11.5 mph - N/A   Overcast
5:00 AM 46.4 °F 41.9 °F 41.0 °F 81% 30.36 in 6.2 mi WNW 9.2 mph - N/A   Mostly Cloudy
5:30 AM 46.4 °F 42.4 °F 41.0 °F 81% 30.36 in 6.2 mi WNW 8.1 mph - N/A   Scattered Clouds
6:00 AM 45 °F - 41 °F 79% 30.38 in 16 mi WNW 10.4 mph - -   Partly Cloudy
6:00 AM 44.6 °F 39.2 °F 41.0 °F 87% 30.36 in - WNW 10.4 mph - N/A   Clear
6:30 AM 44.6 °F 40.7 °F 41.0 °F 87% 30.39 in - NW 6.9 mph - N/A   Clear
7:00 AM 47 °F - 41 °F 74% 30.39 in - NW 8.1 mph - -  
7:00 AM 46.4 °F 42.4 °F 41.0 °F 81% 30.39 in - NW 8.1 mph - N/A   Clear
7:30 AM 48.2 °F - 41.0 °F 76% 30.39 in - WNW 10.4 mph - N/A   Clear
8:00 AM 48.2 °F - 41.0 °F 76% 30.39 in 6.2 mi WNW 10.4 mph - N/A   Mostly Cloudy
8:30 AM 50.0 °F - 41.0 °F 71% 30.39 in 6.2 mi WNW 11.5 mph - N/A   Mostly Cloudy
9:00 AM 51 °F - 41 °F 59% 30.42 in 16 mi WNW 10.4 mph - -   Partly Cloudy
9:00 AM 51.8 °F - 41.0 °F 67% 30.39 in 6.2 mi WNW 10.4 mph - N/A   Mostly Cloudy
9:30 AM 51.8 °F - 41.0 °F 67% 30.42 in 6.2 mi WNW 10.4 mph - N/A   Mostly Cloudy
10:00 AM 54 °F - 41 °F 50% 30.41 in - WNW 11.5 mph - -  
10:00 AM 53.6 °F - 41.0 °F 62% 30.39 in 6.2 mi WNW 11.5 mph - N/A   Mostly Cloudy
10:30 AM 57.2 °F - 41.0 °F 55% 30.39 in 6.2 mi West 10.4 mph - N/A   Scattered Clouds
11:00 AM 59.0 °F - 41.0 °F 51% 30.39 in 6.2 mi WNW 10.4 mph - N/A   Partly Cloudy
11:30 AM 60.8 °F - 41.0 °F 48% 30.39 in 6.2 mi WNW 9.2 mph - N/A   Partly Cloudy
12:00 PM 61 °F - 41 °F 37% 30.38 in 19 mi WNW 6.9 mph - -   Partly Cloudy
12:00 PM 60.8 °F - 41.0 °F 48% 30.36 in 6.2 mi WNW 6.9 mph - N/A   Partly Cloudy
12:30 PM 62.6 °F - 41.0 °F 45% 30.36 in 6.2 mi WNW 6.9 mph - N/A   Partly Cloudy
1:00 PM 62 °F - 41 °F 34% 30.35 in - West 6.9 mph - -  
1:00 PM 62.6 °F - 41.0 °F 45% 30.33 in 6.2 mi West 6.9 mph - N/A   Partly Cloudy
1:30 PM 64.4 °F - 41.0 °F 42% 30.33 in 6.2 mi West 5.8 mph - N/A   Partly Cloudy
2:00 PM 62.6 °F - 41.0 °F 45% 30.33 in 6.2 mi South 5.8 mph - N/A   Partly Cloudy
2:30 PM 62.6 °F - 41.0 °F 45% 30.30 in 6.2 mi SSE 10.4 mph - N/A   Partly Cloudy
3:00 PM 63 °F - 41 °F 33% 30.33 in 16 mi SSE 10.4 mph - -   Haze
3:00 PM 62.6 °F - 41.0 °F 45% 30.30 in 6.2 mi SSE 10.4 mph - N/A   Partly Cloudy
3:30 PM 62.6 °F - 42.8 °F 48% 30.33 in 6.2 mi SE 8.1 mph - N/A   Partly Cloudy
4:00 PM 61 °F - 43 °F 39% 30.33 in - SE 6.9 mph - -  
4:00 PM 60.8 °F - 42.8 °F 52% 30.33 in 6.2 mi SE 6.9 mph - N/A   Partly Cloudy
4:30 PM 59.0 °F - 42.8 °F 55% 30.33 in - SE 5.8 mph - N/A   Clear
5:00 PM 57.2 °F - 46.4 °F 67% 30.30 in - East 3.5 mph - N/A   Clear
5:30 PM 51.8 °F - 46.4 °F 82% 30.30 in - Calm Calm - N/A   Clear
6:00 PM 49 °F - 45 °F 82% 30.33 in - Calm Calm - -  
6:00 PM 48.2 °F - 44.6 °F 87% 30.33 in - Calm Calm - N/A   Clear
6:30 PM 48.2 °F - 44.6 °F 87% 30.33 in - Calm Calm - N/A   Clear
7:00 PM 47 °F - 45 °F 89% 30.34 in - Calm Calm - -  
7:00 PM 46.4 °F - 44.6 °F 93% 30.33 in - Calm Calm - N/A   Clear
7:30 PM 46.4 °F - 44.6 °F 93% 30.33 in - Calm Calm - N/A   Clear
8:00 PM 44.6 °F - 42.8 °F 93% 30.33 in - Calm Calm - N/A   Clear
8:30 PM 42.8 °F - 42.8 °F 100% 30.36 in - Calm Calm - N/A   Clear
9:00 PM 44 °F - 42 °F 92% 30.37 in - Calm Calm - -  
9:00 PM 44.6 °F - 42.8 °F 93% 30.36 in - Calm Calm - N/A   Clear
9:30 PM 42.8 °F - 42.8 °F 100% 30.36 in - Calm Calm - N/A   Clear
10:00 PM 43 °F - 41 °F 92% 30.35 in - Calm Calm - -  
10:00 PM 42.8 °F - 41.0 °F 93% 30.33 in - Calm Calm - N/A   Clear
10:30 PM 42.8 °F - 41.0 °F 93% 30.33 in 6.2 mi Calm Calm - N/A   Unknown
11:00 PM 42.8 °F - 41.0 °F 93% 30.33 in 6.2 mi Calm Calm - N/A   Unknown
11:30 PM 41.0 °F - 39.2 °F 93% 30.33 in - Calm Calm - N/A   Unknown